Location: Ferchesar
(52.6477°N, 12.4298°E)
Time: 04:04:21
(UTC+02:00)

Vanguard 3 - Pass Details

Date: 06 March 2021
Orbit: 508 x 3262 km, 33.3° (Epoch: 15 April)

Event Time Altitude Azimuth Distance (km) Brightness Sun altitude
Rises 12:13:35 0° 191° (S) 6,952 13.0 31.8°
Reaches altitude 10° 12:20:36 10° 175° (S) 6,143 13.2 31.9°
Maximum altitude 12:31:31 18° 141° (SE) 5,469 12.3 31.8°
Drops below altitude 10° 12:41:47 10° 107° (ESE) 5,787 11.7 31.7°
Sets 12:47:55 0° 91° (E) 6,423 11.7 31.6°
